KINEIS-2B

Last updated on Mon Sep 21 2026 00:02:54 GMT+0000 (Coordinated Universal Time)

1 62934U 25028G 26263.41399800 .00000724 00000+0 11886-3 0 9993 2 62934 97.9577 314.5148 0003278 182.9792 177.1398 14.73578675 86681
UTC large
Height (km)
Speed (km/s)
/
Latitude / Longitude
Inclination (degrees)
Orbital Period (minutes)
Azimuth
Elevation
Range (km)
Doppler Factor

Next 0 passes for location: London (51.5072 / 0.1276)

No passes found over London.
KINEIS-2B